Wind_Speed
93 98 98 93 90 89 83 77 76 74 69 66 68 68 67 63 61 61 50 56 55 54 51 50 44 42 42 42 43 37 28 31 26 25 28 28 33 35 32 32 32 31 31
95 97 103 101 95 89 82 79 79 78 75 70 72 71 70 68 63 62 61 44 52 56 60 54 40 41 47 44 40 42 37 33 33 33 33 35 33 35 33 35 39 32 35
96 99 100 104 102 93 86 84 82 80 78 75 74 73 72 71 69 67 65 57 63 61 58 58 59 47 47 47 43 42 41 37 38 39 40 38 39 34 34 38 41 34 37
95 100 103 105 107 95 89 86 84 82 80 76 74 73 75 76 79 74 70 62 53 54 52 56 48 46 44 46 46 46 49 47 48 45 45 40 35 36 38 38 39 37 39
98 98 103 105 109 100 93 89 87 85 81 76 74 73 67 78 80 82 80 76 70 57 54 50 45 48 36 42 48 44 50 49 44 40 36 36 38 39 43 41 43 40 40
98 96 100 104 107 104 98 97 87 89 85 79 77 78 68 72 81 85 86 80 80 72 54 50 53 47 38 50 50 50 53 49 44 40 42 42 43 46 45 42 41 39 43
103 97 98 102 106 106 103 100 93 81 80 83 79 81 77 72 74 84 84 82 76 70 70 62 59 48 52 60 57 50 54 41 50 47 44 47 48 44 44 41 42 43 43
105 98 97 101 107 105 108 104 97 68 66 87 88 84 89 78 71 77 86 85 81 76 72 68 65 63 58 57 56 55 52 51 52 49 51 52 47 46 45 44 46 47 47
105 101 97 99 104 105 109 107 106 99 78 89 97 90 89 89 75 74 80 85 85 80 78 78 67 70 70 66 61 58 58 52 51 52 54 55 54 51 50 49 50 50 49
104 105 99 99 104 105 105 112 113 113 84 76 88 96 96 91 93 85 78 88 87 87 79 80 74 66 72 75 63 60 61 59 60 58 55 61 61 57 56 56 54 52 52
101 108 104 102 103 104 102 111 116 118 118 86 85 95 101 97 92 94 92 83 89 89 87 83 79 75 76 74 73 66 62 59 60 61 60 62 65 63 62 62 60 56 55
95 108 108 105 104 104 101 106 119 122 117 113 99 93 99 99 96 92 90 89 85 92 91 86 84 83 81 82 76 71 69 67 61 63 61 62 64 68 66 63 64 60 61
91 102 110 109 107 105 103 102 111 119 122 116 113 97 88 94 97 94 93 91 90 86 92 92 91 87 85 85 79 75 73 71 69 61 60 64 65 66 69 69 68 60 55
85 94 107 110 110 108 104 99 103 112 116 111 110 98 85 87 89 97 88 92 93 92 86 85 89 90 89 85 78 77 76 75 72 62 58 59 62 65 64 65 66 62 56
79 89 98 110 111 109 107 102 97 103 110 106 106 98 94 71 82 91 92 88 88 93 89 89 90 90 89 87 85 82 78 75 77 73 72 68 68 66 62 61 65 66 62
74 83 91 101 112 112 112 105 97 97 105 101 96 93 96 65 61 80 81 93 89 88 93 85 86 89 90 88 88 89 84 81 83 80 76 75 73 74 63 64 66 67 64
71 78 84 95 105 113 112 109 101 96 102 101 95 86 81 76 70 72 61 90 90 86 86 89 87 87 90 92 91 90 89 88 87 86 78 78 76 75 73 70 67 67 67
66 70 78 86 96 105 112 109 104 99 101 107 98 83 85 80 68 64 76 79 93 87 87 80 80 85 85 85 90 97 94 91 85 84 85 85 83 78 77 78 74 71 68
64 67 71 79 87 93 101 104 103 102 104 106 108 101 87 86 81 73 71 89 93 67 71 88 88 92 95 93 91 93 93 93 94 89 88 86 83 82 82 81 77 75 76
61 61 64 71 76 82 91 100 102 104 108 110 121 115 95 76 74 59 57 78 85 68 70 81 80 87 98 98 94 93 94 94 91 93 95 91 88 86 85 84 87 85 82
57 60 62 65 69 76 85 94 104 104 110 113 121 128 111 97 75 61 61 81 78 94 45 63 78 78 86 94 96 93 94 94 91 88 88 89 89 93 93 89 90 88 88
54 58 60 63 66 72 80 89 95 99 112 119 118 128 131 116 90 80 79 96 78 63 74 56 73 92 85 92 96 90 91 99 103 101 99 96 88 84 87 90 91 90 93
50 53 56 60 66 70 77 82 91 98 104 117 119 122 125 121 116 102 89 99 91 84 79 69 85 84 73 72 89 96 95 88 96 98 101 104 103 97 91 91 93 93 92
47 50 53 58 64 69 74 79 88 94 103 112 122 122 121 116 106 111 111 110 106 99 88 85 79 72 61 69 61 95 99 102 89 88 93 95 97 97 96 92 93 90 91
47 48 52 59 64 69 72 81 88 94 104 111 121 121 118 117 115 117 116 110 120 112 88 92 82 72 79 85 90 72 83 95 101 97 93 94 96 96 94 93 92 93 91
46 46 50 56 64 70 74 80 85 93 102 108 112 123 120 127 118 118 119 119 116 112 103 94 92 95 94 92 95 89 79 87 100 108 105 100 91 94 99 101 99 99 101
Wind_Direction
226 228 225 227 226 213 210 215 214 207 209 206 203 205 203 200 200 207 215 213 217 220 221 226 230 243 241 241 245 246 248 250 247 242 245 258 256 263 275 275 284 286 289
224 227 225 224 224 216 213 217 216 207 209 206 204 204 205 199 200 204 206 216 207 225 228 223 221 231 238 240 250 236 248 246 249 246 250 258 260 265 269 274 282 276 290
224 223 226 222 222 217 212 215 218 212 208 206 204 203 204 202 199 202 201 202 210 215 224 225 229 234 239 242 239 238 245 243 244 249 253 255 262 261 268 277 285 273 286
219 222 223 221 220 217 212 216 221 215 209 209 206 203 205 206 204 203 202 201 208 215 220 219 220 230 241 246 238 239 243 244 246 248 254 256 259 267 271 278 279 271 276
219 219 221 222 218 214 211 212 218 221 211 209 208 208 206 210 210 205 208 211 215 214 222 215 218 227 235 246 242 232 248 249 249 250 248 257 261 267 272 273 275 275 271
220 219 221 222 220 214 210 210 214 219 215 210 209 209 204 212 214 212 213 214 214 220 224 210 219 221 221 226 241 243 247 246 249 253 253 258 264 269 271 267 268 267 271
220 215 218 220 222 213 210 209 212 216 223 218 213 211 208 214 215 216 214 216 217 214 219 218 216 218 217 227 238 231 242 240 248 253 257 258 262 264 264 262 263 262 266
219 214 216 219 220 213 208 207 208 201 227 222 221 215 217 213 217 219 219 217 214 218 218 219 218 214 211 217 221 235 236 245 248 247 250 255 256 257 259 259 260 261 263
217 216 213 217 220 216 207 206 204 208 212 222 219 219 221 220 217 221 222 219 219 220 223 220 224 228 230 234 238 237 243 249 252 255 259 262 257 256 257 257 258 260 262
215 216 212 214 219 219 207 206 205 205 207 210 212 216 217 220 222 223 224 221 219 219 221 223 226 232 235 240 241 238 247 253 254 254 255 261 262 254 258 257 257 260 263
211 214 212 213 217 219 209 205 208 207 213 214 215 214 218 217 219 223 228 224 222 221 220 225 227 228 229 235 245 249 251 253 255 253 254 257 257 256 256 257 259 261 263
211 212 213 213 215 218 213 205 208 210 212 214 215 214 217 218 219 222 225 227 224 222 224 224 226 230 234 238 243 246 248 253 255 251 254 260 260 256 256 257 257 259 260
215 212 214 213 215 217 215 207 208 210 211 213 213 214 216 219 220 222 224 228 229 225 225 225 227 231 233 237 240 246 248 249 254 253 254 257 258 258 258 257 259 259 261
217 216 214 215 214 216 216 212 208 211 212 213 212 212 214 219 224 223 225 228 230 232 230 230 231 235 239 241 244 248 251 251 249 251 255 256 259 257 259 258 259 265 259
218 216 215 215 217 217 217 214 209 211 212 213 212 210 212 212 225 226 225 228 233 234 234 235 236 237 239 241 242 245 248 251 252 251 256 260 261 260 260 262 263 260 260
218 218 215 216 217 218 217 216 210 208 211 209 209 209 212 216 218 225 226 226 230 235 235 236 238 239 241 245 247 246 246 244 249 254 255 259 261 261 257 256 257 259 259
218 218 217 217 218 219 218 215 211 206 209 205 201 203 203 211 216 219 223 234 229 235 240 239 239 240 240 238 240 243 245 247 248 251 250 253 255 258 258 256 255 257 262
220 217 218 217 218 219 219 216 211 206 207 201 198 197 194 200 199 218 216 212 226 238 240 242 240 242 243 243 243 242 242 244 247 248 250 253 254 255 255 254 253 258 261
220 219 217 218 219 219 220 217 211 206 205 203 197 202 201 207 209 209 211 214 211 225 241 242 241 245 243 243 244 246 245 245 245 246 249 251 252 257 256 257 258 258 264
222 220 218 219 220 218 218 216 214 206 203 203 201 202 200 197 200 197 200 202 201 219 237 241 239 243 241 242 244 244 246 244 245 246 247 248 250 254 256 259 261 263 263
220 222 219 217 216 216 215 214 213 209 202 204 204 204 199 203 202 195 204 194 204 211 221 241 241 236 240 241 242 245 247 246 244 245 250 251 251 252 253 255 257 258 259
219 220 219 217 214 213 214 212 212 209 202 204 205 207 205 201 206 207 207 194 196 211 202 223 237 238 241 241 243 246 246 248 250 249 251 251 252 251 253 256 258 260 263
220 219 220 217 213 212 211 209 209 208 205 205 206 211 212 213 215 215 208 205 209 214 208 219 232 231 234 248 248 245 244 245 246 248 252 253 252 253 254 255 258 261 263
222 222 217 216 213 210 209 209 208 207 206 205 207 210 211 209 207 210 209 211 208 214 220 224 225 228 221 229 254 243 240 241 244 244 247 248 251 252 253 253 256 257 259
224 221 218 215 216 210 208 208 207 205 207 206 207 208 210 207 208 207 212 208 208 214 216 223 224 215 210 209 225 233 234 237 240 243 248 247 247 249 250 250 253 255 259
225 222 219 217 216 214 210 210 208 206 207 208 205 206 209 205 207 208 209 206 211 217 220 221 223 220 223 232 236 238 240 238 240 244 244 246 248 249 250 250 252 256 260
Height
10553 10565 10579 10593 10602 10607 10626 10642 10655 10668 10683 10694 10704 10714 10723 10735 10747 10754 10763 10769 10776 10784 10789 10791 10795 10797 10804 10807 10811 10815 10819 10823 10829 10832 10833 10834 10835 10836 10836 10836 10837 10835 10834
10532 10543 10554 10572 10586 10614 10639 10640 10642 10655 10667 10679 10689 10701 10713 10724 10737 10746 10753 10762 10768 10773 10778 10784 10789 10790 10794 10799 10803 10807 10811 10817 10822 10824 10826 10827 10828 10829 10829 10829 10828 10829 10827
10511 10521 10534 10551 10565 10595 10621 10627 10635 10646 10656 10665 10677 10690 10702 10716 10724 10730 10737 10747 10752 10761 10767 10771 10778 10783 10785 10790 10795 10799 10803 10809 10813 10817 10819 10820 10821 10822 10822 10822 10821 10820 10822
10486 10499 10510 10525 10545 10583 10609 10622 10628 10636 10650 10663 10672 10680 10691 10699 10706 10717 10727 10738 10745 10752 10755 10761 10766 10772 10775 10779 10784 10790 10796 10801 10803 10807 10810 10812 10813 10814 10815 10815 10814 10814 10813
10465 10477 10490 10504 10526 10560 10589 10606 10616 10629 10642 10655 10669 10683 10689 10690 10697 10706 10713 10723 10734 10743 10747 10753 10756 10760 10765 10768 10774 10780 10786 10791 10795 10799 10802 10803 10805 10806 10808 10808 10808 10807 10806
10441 10460 10473 10488 10507 10543 10569 10586 10596 10613 10630 10646 10654 10665 10670 10678 10685 10693 10700 10709 10721 10729 10739 10744 10747 10751 10757 10762 10766 10770 10778 10782 10785 10791 10792 10795 10797 10800 10800 10800 10799 10799 10797
10409 10436 10451 10468 10484 10519 10549 10568 10584 10604 10622 10637 10646 10653 10655 10663 10670 10681 10693 10705 10715 10721 10728 10730 10737 10744 10750 10753 10756 10763 10769 10773 10777 10781 10783 10786 10789 10792 10791 10791 10790 10789 10789
10389 10413 10431 10445 10457 10489 10525 10551 10575 10583 10593 10616 10633 10639 10645 10653 10663 10669 10678 10691 10702 10711 10715 10724 10731 10734 10735 10737 10745 10754 10761 10766 10768 10773 10776 10777 10781 10781 10781 10782 10781 10780 10780
10369 10392 10412 10425 10437 10463 10503 10530 10551 10564 10567 10586 10605 10624 10637 10646 10654 10658 10667 10677 10687 10697 10706 10713 10723 10726 10730 10733 10740 10746 10752 10757 10761 10765 10768 10769 10771 10770 10770 10772 10771 10770 10770
10349 10369 10393 10406 10416 10437 10478 10506 10522 10537 10541 10557 10573 10590 10606 10627 10639 10646 10653 10665 10671 10681 10689 10698 10710 10716 10720 10726 10733 10738 10743 10746 10750 10753 10756 10757 10760 10761 10758 10760 10761 10761 10760
10326 10347 10369 10385 10398 10417 10455 10485 10500 10513 10523 10537 10550 10571 10588 10600 10612 10628 10636 10648 10656 10667 10678 10686 10695 10703 10711 10715 10721 10728 10733 10736 10738 10742 10742 10744 10746 10749 10747 10747 10748 10752 10751
10310 10328 10346 10364 10378 10397 10426 10458 10477 10492 10509 10521 10541 10559 10568 10581 10596 10614 10622 10627 10640 10652 10662 10672 10681 10688 10696 10701 10709 10714 10720 10723 10727 10728 10730 10730 10733 10736 10735 10734 10733 10739 10740
10295 10311 10329 10346 10361 10378 10402 10431 10451 10468 10485 10502 10517 10534 10552 10570 10582 10595 10608 10615 10623 10635 10646 10658 10667 10672 10680 10687 10696 10695 10704 10712 10715 10716 10717 10716 10718 10721 10724 10721 10719 10725 10729
10280 10297 10313 10328 10343 10360 10384 10411 10434 10448 10462 10476 10497 10519 10539 10557 10567 10579 10591 10601 10609 10619 10632 10642 10651 10657 10663 10672 10679 10685 10689 10697 10702 10704 10704 10703 10702 10705 10709 10712 10708 10708 10714
10265 10280 10296 10313 10328 10343 10362 10386 10415 10433 10447 10464 10482 10501 10514 10534 10550 10564 10577 10584 10596 10606 10616 10624 10634 10640 10647 10657 10666 10672 10676 10680 10685 10689 10690 10690 10689 10690 10694 10698 10696 10694 10699
10248 10262 10279 10295 10310 10323 10341 10368 10396 10415 10431 10453 10469 10489 10509 10525 10536 10550 10561 10572 10583 10588 10598 10608 10616 10623 10632 10638 10645 10653 10659 10663 10667 10673 10675 10675 10676 10679 10682 10682 10684 10681 10683
10231 10244 10260 10276 10288 10302 10322 10349 10376 10399 10412 10437 10456 10474 10494 10506 10514 10533 10562 10569 10577 10582 10587 10593 10601 10606 10612 10621 10626 10632 10639 10645 10650 10654 10656 10659 10660 10662 10665 10667 10667 10667 10666
10216 10229 10242 10256 10267 10282 10298 10325 10356 10382 10396 10418 10438 10456 10467 10476 10493 10498 10531 10548 10560 10576 10577 10580 10587 10589 10594 10600 10608 10612 10619 10625 10631 10636 10639 10642 10643 10645 10646 10650 10649 10649 10651
10202 10214 10227 10239 10250 10264 10282 10309 10337 10362 10377 10398 10420 10431 10447 10456 10470 10485 10501 10521 10544 10553 10562 10564 10565 10574 10576 10578 10585 10593 10602 10607 10613 10617 10621 10626 10630 10630 10631 10633 10634 10635 10636
10191 10202 10214 10224 10236 10251 10265 10286 10312 10339 10357 10375 10394 10410 10429 10443 10460 10468 10483 10502 10528 10542 10543 10538 10543 10548 10556 10559 10564 10572 10583 10591 10595 10597 10603 10608 10612 10614 10614 10615 10616 10619 10616
10181 10190 10201 10210 10221 10234 10247 10265 10286 10313 10339 10354 10370 10393 10411 10428 10443 10449 10464 10482 10500 10512 10517 10509 10523 10529 10535 10539 10547 10556 10563 10571 10575 10581 10587 10590 10590 10593 10593 10593 10595 10597 10595
10170 10178 10186 10197 10207 10219 10230 10248 10269 10293 10311 10329 10352 10371 10389 10408 10426 10438 10452 10463 10477 10485 10498 10493 10499 10509 10519 10526 10532 10536 10542 10549 10554 10563 10567 10568 10571 10574 10574 10574 10576 10579 10579
10159 10166 10174 10184 10195 10206 10217 10233 10251 10271 10295 10312 10332 10349 10368 10387 10404 10422 10440 10453 10453 10462 10470 10472 10484 10494 10509 10518 10518 10521 10523 10525 10532 10536 10541 10548 10552 10555 10555 10556 10559 10560 10562
10146 10155 10163 10171 10180 10193 10206 10220 10236 10255 10273 10290 10305 10321 10346 10365 10380 10398 10407 10415 10430 10438 10446 10454 10468 10482 10492 10501 10477 10491 10499 10506 10508 10513 10518 10526 10532 10536 10535 10537 10540 10542 10543
10136 10145 10154 10160 10168 10180 10194 10205 10219 10237 10251 10267 10285 10311 10328 10344 10359 10371 10386 10395 10406 10408 10422 10432 10447 10458 10460 10465 10462 10473 10477 10481 10486 10492 10496 10504 10509 10514 10516 10519 10520 10522 10524
10125 10133 10142 10151 10160 10169 10178 10191 10206 10222 10235 10252 10268 10289 10305 10322 10338 10352 10362 10370 10379 10396 10401 10411 10425 10441 10438 10436 10442 10454 10447 10454 10463 10468 10475 10480 10486 10491 10496 10498 10499 10500 10502